EW7961 Weather Reports


time (UTC)temp
C
wind
direction
speed
KPH
gust
KPH
rain 1hr
cm
rain 24hr
cm
rain mn
cm
humidity
%
barometer
mb
20260906040019 31 288 1.6 4.8 0.00 0.00 0.00 65 1014.0
20260906035019 31 286 1.6 3.2 0.00 0.00 0.00 65 1014.0
20260906034019 31 293 1.6 3.2 0.00 0.00 0.00 63 1013.9
20260906032020 32 285 1.6 4.8 0.00 0.00 0.00 61 1013.7
20260906031100 32 289 1.6 4.8 0.00 0.00 0.00 60 1013.7
20260906030017 32 287 1.6 4.8 0.00 0.00 0.00 59 1013.6
20260906025020 32 288 1.6 4.8 0.00 0.00 0.00 58 1013.4
20260906024020 32 289 1.6 4.8 0.00 0.00 0.00 57 1013.3
20260906022017 32 290 1.6 3.2 0.00 0.00 0.00 54 1013.1
20260906021018 32 292 1.6 3.2 0.00 0.00 0.00 53 1013.0
20260906020020 32 289 1.6 3.2 0.00 0.00 0.00 53 1012.8
20260906015020 32 290 1.6 4.8 0.00 0.00 0.00 53 1012.7
20260906014019 32 291 1.6 4.8 0.00 0.00 0.00 54 1012.7
20260906005018 33 290 1.6 3.2 0.00 0.00 0.00 51 1012.1
20260906004018 33 290 1.6 3.2 0.00 0.00 0.00 50 1012.1
20260906003019 34 293 1.6 3.2 0.00 0.00 0.00 50 1012.1
20260906001059 35 295 3.2 6.4 0.00 0.00 0.00 48 1012.1
20260906000059 35 301 1.6 3.2 0.00 0.00 0.00 47 1012.1
20260905235019 35 297 1.6 4.8 0.00 0.00 0.00 45 1012.2
20260905234059 35 288 1.6 4.8 0.00 0.00 0.00 45 1012.1
20260905233019 36 285 3.2 4.8 0.00 0.00 0.00 44 1012.1
20260905232019 36 306 3.2 6.4 0.00 0.00 0.00 44 1012.1
20260905231020 36 298 1.6 3.2 0.00 0.00 0.00 43 1012.1
20260905230019 37 317 3.2 8.0 0.00 0.00 0.00 40 1012.0
20260905225020 37 289 3.2 8.0 0.00 0.00 0.00 40 1012.0
20260905224017 37 289 3.2 6.4 0.00 0.00 0.00 40 1011.9
20260905223103 37 280 3.2 6.4 0.00 0.00 0.00 40 1011.8
20260905222100 38 296 3.2 6.4 0.00 0.00 0.00 41 1011.9
20260905221020 38 299 1.6 4.8 0.00 0.00 0.00 40 1012.0
20260905220018 38 300 3.2 8.0 0.00 0.00 0.00 40 1012.0
20260905215017 38 279 3.2 8.0 0.00 0.00 0.00 39 1011.9
20260905214026 38 281 3.2 6.4 0.00 0.00 0.00 39 1011.8
20260905213024 38 300 3.2 8.0 0.00 0.00 0.00 40 1011.8
20260905212018 38 295 3.2 8.0 0.00 0.00 0.00 39 1011.9
20260905211018 38 277 3.2 8.0 0.00 0.00 0.00 38 1011.9
20260905210018 38 294 3.2 8.0 0.00 0.00 0.00 38 1012.0
20260905205058 38 306 3.2 4.8 0.00 0.00 0.00 37 1012.1
20260905192531 37 296 3.2 8.0 0.00 0.00 0.00 40 1013.0
20260905191531 37 269 4.8 6.4 0.00 0.00 0.00 40 1013.0
20260905190531 37 315 1.6 6.4 0.00 0.00 0.00 41 1013.1
20260905185531 37 300 3.2 6.4 0.00 0.00 0.00 41 1013.2
20260905184531 37 282 3.2 6.4 0.00 0.00 0.00 41 1013.4
20260905183531 37 284 4.8 6.4 0.00 0.00 0.00 41 1013.5
20260905182531 37 310 3.2 4.8 0.00 0.00 0.00 42 1013.6
20260905181520 37 290 3.2 9.7 0.00 0.00 0.00 44 1013.6
20260905180531 36 291 3.2 6.4 0.00 0.00 0.00 45 1013.7
20260905175517 36 291 3.2 6.4 0.00 0.00 0.00 46 1013.7
20260905174532 36 299 1.6 3.2 0.00 0.00 0.00 47 1013.7
20260905173520 36 275 3.2 8.0 0.00 0.00 0.00 47 1013.9
20260905172532 36 270 4.8 8.0 0.00 0.00 0.00 48 1014.0
20260905171532 35 314 3.2 3.2 0.00 0.00 0.00 48 1014.2
20260905170518 35 304 3.2 4.8 0.00 0.00 0.00 49 1014.3
20260905165517 35 301 3.2 6.4 0.00 0.00 0.00 50 1014.4
20260905164517 34 292 4.8 8.0 0.00 0.00 0.00 50 1014.5
20260905163532 34 280 3.2 6.4 0.00 0.00 0.00 51 1014.6
20260905162518 34 304 3.2 4.8 0.00 0.00 0.00 52 1014.7
20260905161518 33 290 3.2 4.8 0.00 0.00 0.00 53 1014.7
20260905160558 33 287 3.2 6.4 0.00 0.00 0.00 54 1014.7
20260905155518 33 281 3.2 4.8 0.00 0.00 0.00 55 1014.8
20260905154518 32 276 3.2 6.4 0.00 0.00 0.00 55 1014.8
20260905153559 32 270 3.2 6.4 0.00 0.00 0.00 56 1014.9
20260905152518 32 281 3.2 6.4 0.00 0.00 0.00 57 1014.9
20260905151558 31 285 3.2 4.8 0.00 0.00 0.00 58 1014.9
20260905150519 31 279 3.2 4.8 0.00 0.00 0.00 60 1014.9
20260905145559 31 286 3.2 4.8 0.00 0.00 0.00 62 1015.0
20260905144559 30 277 3.2 3.2 0.00 0.00 0.00 63 1014.9
20260905143519 30 279 3.2 4.8 0.00 0.00 0.00 63 1014.9
20260905142519 30 278 3.2 4.8 0.00 0.00 0.00 63 1014.9
20260905141559 30 292 1.6 3.2 0.00 0.00 0.00 64 1014.9
20260905140519 30 272 3.2 4.8 0.00 0.00 0.00 64 1014.9
20260905135519 30 285 3.2 4.8 0.00 0.00 0.00 65 1014.9
20260905134600 29 269 1.6 4.8 0.00 0.00 0.00 65 1014.8
20260905133655 29 277 3.2 3.2 0.00 0.00 0.00 67 1014.8
20260905132600 29 275 1.6 3.2 0.00 0.00 0.00 67 1014.7
20260905131520 29 288 1.6 3.2 0.00 0.00 0.00 67 1014.7
20260905130520 29 276 3.2 3.2 0.00 0.00 0.00 67 1014.7
20260905125520 29 272 1.6 4.8 0.00 0.00 0.00 67 1014.6
20260905124521 28 269 3.2 3.2 0.00 0.00 0.00 69 1014.5
20260905122601 27 280 3.2 3.2 0.00 0.00 0.00 76 1014.5
20260905121521 27 270 3.2 3.2 0.00 0.00 0.00 77 1014.4
20260905120521 27 277 1.6 3.2 0.00 0.00 0.00 77 1014.4
20260905115521 27 277 3.2 3.2 0.00 0.00 0.00 77 1014.3
20260905113521 27 272 3.2 3.2 0.00 0.00 0.00 76 1014.1
20260905112521 27 272 1.6 3.2 0.00 0.00 0.00 76 1014.1
20260905111601 27 281 1.6 3.2 0.00 0.00 0.00 75 1014.0
20260905110522 27 271 1.6 3.2 0.00 0.00 0.00 75 1013.9
20260905105522 27 275 1.6 3.2 0.00 0.00 0.00 74 1013.9
20260905104602 28 275 1.6 3.2 0.00 0.00 0.00 74 1013.9
20260905103522 28 283 0.0 1.6 0.00 0.00 0.00 73 1013.9
20260905102522 28 286 1.6 3.2 0.00 0.00 0.00 73 1014.0
20260905101522 28 275 1.6 3.2 0.00 0.00 0.00 73 1014.0
20260905100522 28 276 1.6 3.2 0.00 0.00 0.00 73 1014.1
20260905095603 28 275 1.6 3.2 0.00 0.00 0.00 72 1014.0
20260905094522 28 278 1.6 3.2 0.00 0.00 0.00 72 1013.9
20260905093522 28 282 1.6 1.6 0.00 0.00 0.00 72 1013.9
20260905092606 28 275 1.6 3.2 0.00 0.00 0.00 71 1014.0
20260905091603 28 275 1.6 1.6 0.00 0.00 0.00 70 1014.0
20260905090540 28 276 3.2 3.2 0.00 0.00 0.00 70 1014.0
20260905085523 29 282 1.6 3.2 0.00 0.00 0.00 69 1013.9
20260905084524 29 283 1.6 3.2 0.00 0.00 0.00 69 1013.9
20260905083524 29 280 3.2 3.2 0.00 0.00 0.00 69 1013.9
20260905081524 29 285 1.6 1.6 0.00 0.00 0.00 69 1014.1
20260905080524 29 283 1.6 3.2 0.00 0.00 0.00 69 1014.1
20260905075524 29 283 1.6 3.2 0.00 0.00 0.00 69 1014.2
20260905074604 29 281 3.2 3.2 0.00 0.00 0.00 68 1014.2
20260905073524 29 279 1.6 3.2 0.00 0.00 0.00 67 1014.3
20260905072605 30 285 1.6 3.2 0.00 0.00 0.00 67 1014.3
20260905071539 30 283 1.6 3.2 0.00 0.00 0.00 67 1014.2
20260905070525 30 276 3.2 3.2 0.00 0.00 0.00 67 1014.3
20260905065524 30 265 1.6 1.6 0.00 0.00 0.00 67 1014.3
20260905064524 30 288 0.0 1.6 0.00 0.00 0.00 66 1014.3
20260905063525 30 283 1.6 3.2 0.00 0.00 0.00 66 1014.2
20260905062606 30 282 1.6 3.2 0.00 0.00 0.00 65 1014.3
20260905061525 30 293 1.6 1.6 0.00 0.00 0.00 65 1014.4
20260905060606 30 292 1.6 1.6 0.00 0.00 0.00 64 1014.4
20260905055526 30 288 1.6 1.6 0.00 0.00 0.00 64 1014.4
20260905054517 30 284 1.6 3.2 0.00 0.00 0.00 64 1014.4
20260905053517 30 285 1.6 3.2 0.00 0.00 0.00 63 1014.4
20260905052517 30 286 1.6 3.2 0.00 0.00 0.00 63 1014.4
20260905051521 30 286 1.6 3.2 0.00 0.00 0.00 63 1014.5
20260905050521 30 290 1.6 3.2 0.00 0.00 0.00 63 1014.4
20260905045558 30 296 1.6 1.6 0.00 0.00 0.00 63 1014.3
20260905044517 30 285 3.2 3.2 0.00 0.00 0.00 63 1014.3
20260905043638 31 286 1.6 3.2 0.00 0.00 0.00 63 1014.3
20260905042521 31 283 3.2 3.2 0.00 0.00 0.00 62 1014.2
20260905041518 31 291 1.6 3.2 0.00 0.00 0.00 62 1014.1
20260905040517 31 290 3.2 4.8 0.00 0.00 0.00 61 1014.1